Location: Unspecified
(0.0000°N, 0.0000°E)
Time: 18:16:50
(UTC+00:00)

SRMSAT - Pass Details

Date: 04 June 2020
Orbit: 848 x 866 km, 20.0° (Epoch: 06 July)

Event Time Altitude Azimuth Distance (km) Brightness Sun altitude
Rises 18:35:38 0° 317° (NW) 3,387 ? -8.6°
Reaches altitude 10° 18:40:18 10° 350° (N) 2,452 ? -9.6°
Maximum altitude 18:42:08 11° 8° (N) 2,353 ? -10.1°
Drops below altitude 10° 18:43:57 10° 26° (NNE) 2,453 ? -10.5°
Sets 18:48:37 0° 59° (ENE) 3,391 ? -11.6°
